Flag for Belgium Weather past 2 weeks in Eupen, Belgium

Now
60 °F

Sunny.


Feels Like: 60 °F
Forecast: 49 / 67 °F
Wind: 1 mph from Southwest

Location: Spa / La Sauveniere

Current Time: Oct 1, 2014 at 11:10:49 AM

Latest Report: Oct 1, 2014 at 10:00 AM


Visibility: N/A

Pressure: N/A

Humidity: N/A

Dew point: N/A

Location of EupenLocation

Historic Weather in Eupen — Graph

°F

Eupen temperature yesterday

Maximum temperature yesterday: 64 °F (at 4:00 PM)
Minimum temperature yesterday: 54 °F (at 9:00 PM)
Average temperature yesterday: 59 °F

Past Weeks' High & Low Weather Summary

 TemperatureHumidityPressure
High73 °F (Sep 17, 5:00 PM)100% (Sep 21, 10:00 AM)30.37 "Hg (Sep 21, 10:00 AM)
Low41 °F (Sep 23, 8:00 AM)51% (Sep 17, 4:00 PM)29.80 "Hg (Sep 18, 5:00 PM)
Average57 °F85%30.11 "Hg
* Reported Sep 16 9:00 AM — Oct 1 9:00 AM, Eupen, Weather by CustomWeather, © 2014

Note: Actual official high and low records may vary slightly from our data, if they occured in-between our weather recording intervals... More about our weather records

Advertising

Eupen weather history for previous 24 hours

 ConditionsComfort  
Time TempWeatherWind HumidityBarometerVisibility
9:00 AM
Oct 1
55 °FFog.3 mph98%30.34 "Hg3 mi
8:00 AM53 °FFog.3 mph97%30.33 "Hg3 mi
7:00 AM53 °FFog.2 mph98%30.33 "Hg2 mi
6:00 AM54 °FFog.2 mph97%30.33 "Hg3 mi
5:00 AM55 °FClear.3 mph95%30.33 "HgN/A
4:00 AM55 °FClear.3 mph94%30.33 "HgN/A
3:00 AM56 °FOvercast.2 mph93%30.33 "HgN/A
2:00 AM55 °FOvercast.1 mph98%30.34 "HgN/A
1:00 AM56 °FOvercast.3 mph91%30.32 "HgN/A
12:00 AM55 °FClear.3 mph93%30.33 "HgN/A
11:00 PM
Sep 30
55 °FClear.5 mph94%30.33 "HgN/A
10:00 PM55 °FClear.3 mph95%30.33 "HgN/A
9:00 PM54 °FClear.2 mph95%30.33 "HgN/A
8:00 PM56 °FClear.1 mph93%30.32 "Hg7 mi
7:00 PM61 °FSunny.1 mph80%30.30 "Hg10 mi
6:00 PM63 °FSunny.1 mph74%30.29 "Hg10 mi
5:00 PM64 °FSunny.3 mph69%30.29 "Hg11 mi
4:00 PM64 °FScattered clouds.2 mph71%30.29 "Hg11 mi
3:00 PM64 °FPassing clouds.3 mph72%30.30 "Hg10 mi
2:00 PM62 °FPassing clouds.3 mph74%30.30 "Hg12 mi
1:00 PM61 °FScattered clouds.2 mph83%30.30 "Hg6 mi
12:00 PM61 °FOvercast.3 mph79%30.30 "Hg9 mi
11:00 AM58 °FFog.2 mph93%30.30 "Hg3 mi
Weather by CustomWeather, © 2014

See weather overviewHow to use our weather pages